Meteo pe oră la Bolshie Lopatki

Astăzi, 18 Mai, Marţi

Timp Temperatura Precipitaţii Vânt Presiune Umiditate
00:00 +18°C° 0.1 mm 4 m/s 735 mmHg 85%
01:00 +18°C° 0.1 mm 3 m/s 735 mmHg 88%
02:00 +17°C° 0.1 mm 3 m/s 735 mmHg 91%
03:00 +17°C° 0.2 mm 3 m/s 735 mmHg 92%
04:00 +17°C° 0.2 mm 3 m/s 735 mmHg 93%
05:00 +17°C° 0.2 mm 3 m/s 735 mmHg 93%
06:00 +18°C° 0 mm 3 m/s 735 mmHg 88%
07:00 +20°C° 0 mm 4 m/s 735 mmHg 82%
08:00 +22°C° 0 mm 4 m/s 735 mmHg 76%
09:00 +23°C° 0 mm 4 m/s 735 mmHg 70%
10:00 +25°C° 0 mm 4 m/s 735 mmHg 64%
11:00 +26°C° 0 mm 4 m/s 735 mmHg 57%
12:00 +27°C° 0.2 mm 5 m/s 735 mmHg 55%
13:00 +27°C° 0.2 mm 5 m/s 735 mmHg 54%
14:00 +27°C° 0.2 mm 5 m/s 734 mmHg 52%
15:00 +26°C° 0.1 mm 5 m/s 734 mmHg 54%
16:00 +26°C° 0.1 mm 5 m/s 734 mmHg 56%
17:00 +25°C° 0.1 mm 5 m/s 734 mmHg 59%
18:00 +22°C° 0.3 mm 5 m/s 734 mmHg 66%
19:00 +21°C° 0.3 mm 5 m/s 734 mmHg 74%
20:00 +19°C° 0.3 mm 5 m/s 734 mmHg 81%
21:00 +18°C° 0 mm 4 m/s 734 mmHg 86%
22:00 +15°C° 0 mm 4 m/s 734 mmHg 90%
23:00 +14°C° 0 mm 3 m/s 734 mmHg 94%

Mâine, 19 Mai, Miercuri

Timp Temperatura Precipitaţii Vânt Presiune Umiditate
00:00 +14°C° 0 mm 3 m/s 734 mmHg 94%
01:00 +14°C° 0 mm 3 m/s 734 mmHg 95%
02:00 +14°C° 0 mm 3 m/s 734 mmHg 96%
03:00 +14°C° 0 mm 3 m/s 734 mmHg 95%
04:00 +14°C° 0 mm 3 m/s 734 mmHg 95%
05:00 +14°C° 0 mm 3 m/s 734 mmHg 95%
06:00 +14°C° 0.4 mm 3 m/s 734 mmHg 95%
07:00 +14°C° 0.4 mm 3 m/s 735 mmHg 95%
08:00 +14°C° 0.4 mm 3 m/s 735 mmHg 95%
09:00 +17°C° 0.4 mm 3 m/s 735 mmHg 88%
10:00 +18°C° 0.4 mm 3 m/s 735 mmHg 81%
11:00 +20°C° 0.4 mm 4 m/s 735 mmHg 74%
12:00 +20°C° 0.3 mm 4 m/s 735 mmHg 70%
13:00 +21°C° 0.3 mm 3 m/s 735 mmHg 66%
14:00 +21°C° 0.3 mm 3 m/s 735 mmHg 63%
15:00 +21°C° 0.2 mm 3 m/s 735 mmHg 67%
16:00 +20°C° 0.2 mm 3 m/s 735 mmHg 70%
17:00 +20°C° 0.2 mm 3 m/s 735 mmHg 74%
18:00 +19°C° 0.2 mm 2 m/s 735 mmHg 81%
19:00 +17°C° 0.2 mm 2 m/s 735 mmHg 87%
20:00 +16°C° 0.2 mm 2 m/s 735 mmHg 94%
21:00 +15°C° 0.1 mm 2 m/s 735 mmHg 94%
22:00 +15°C° 0.1 mm 1 m/s 735 mmHg 95%
23:00 +15°C° 0.1 mm 1 m/s 735 mmHg 95%

Poimâine, 20 Mai, Joi

Timp Temperatura Precipitaţii Vânt Presiune Umiditate
00:00 +15°C° 0.1 mm 1 m/s 734 mmHg 96%
01:00 +14°C° 0.1 mm 1 m/s 734 mmHg 96%
02:00 +14°C° 0.1 mm 1 m/s 734 mmHg 97%
03:00 +14°C° 0.3 mm 2 m/s 733 mmHg 97%
04:00 +14°C° 0.3 mm 2 m/s 733 mmHg 97%
05:00 +14°C° 0.3 mm 2 m/s 733 mmHg 98%
06:00 +14°C° 0.2 mm 3 m/s 733 mmHg 95%
07:00 +14°C° 0.2 mm 3 m/s 733 mmHg 93%
08:00 +15°C° 0.2 mm 4 m/s 733 mmHg 90%
09:00 +14°C° 0.7 mm 4 m/s 733 mmHg 91%
10:00 +13°C° 0.7 mm 4 m/s 733 mmHg 93%
11:00 +13°C° 0.7 mm 4 m/s 733 mmHg 94%
12:00 +13°C° 0.2 mm 4 m/s 733 mmHg 92%
13:00 +13°C° 0.2 mm 4 m/s 733 mmHg 91%
14:00 +14°C° 0.2 mm 4 m/s 733 mmHg 89%
15:00 +14°C° 0.3 mm 4 m/s 733 mmHg 89%
16:00 +14°C° 0.3 mm 4 m/s 733 mmHg 89%
17:00 +14°C° 0.3 mm 4 m/s 733 mmHg 88%
18:00 +12°C° 0.1 mm 4 m/s 733 mmHg 89%
19:00 +11°C° 0.1 mm 4 m/s 734 mmHg 90%
20:00 +10°C° 0.1 mm 4 m/s 734 mmHg 91%
21:00 +10°C° 0 mm 4 m/s 734 mmHg 89%
22:00 +8°C° 0 mm 4 m/s 734 mmHg 88%
23:00 +8°C° 0 mm 4 m/s 734 mmHg 87%

21 Mai, Vineri

Timp Temperatura Precipitaţii Vânt Presiune Umiditate
00:00 +7°C° 0 mm 4 m/s 734 mmHg 89%
01:00 +7°C° 0 mm 4 m/s 733 mmHg 91%
02:00 +7°C° 0 mm 4 m/s 733 mmHg 93%
03:00 +7°C° 0.2 mm 4 m/s 733 mmHg 94%
04:00 +7°C° 0.2 mm 4 m/s 734 mmHg 95%
05:00 +7°C° 0.2 mm 4 m/s 734 mmHg 96%
06:00 +7°C° 0.3 mm 4 m/s 734 mmHg 96%
07:00 +7°C° 0.3 mm 5 m/s 735 mmHg 95%
08:00 +7°C° 0.3 mm 5 m/s 736 mmHg 95%
09:00 +8°C° 0 mm 5 m/s 737 mmHg 93%
10:00 +8°C° 0 mm 5 m/s 737 mmHg 91%
11:00 +8°C° 0 mm 5 m/s 738 mmHg 89%
12:00 +10°C° 0 mm 5 m/s 739 mmHg 75%
13:00 +14°C° 0 mm 6 m/s 740 mmHg 61%
14:00 +16°C° 0 mm 6 m/s 740 mmHg 47%
15:00 +16°C° 0 mm 5 m/s 741 mmHg 50%
16:00 +15°C° 0 mm 4 m/s 741 mmHg 54%
17:00 +15°C° 0 mm 4 m/s 742 mmHg 57%
18:00 +13°C° 0 mm 3 m/s 742 mmHg 65%
19:00 +12°C° 0 mm 3 m/s 743 mmHg 73%
20:00 +10°C° 0 mm 2 m/s 743 mmHg 80%
21:00 +9°C° 0 mm 2 m/s 743 mmHg 83%
22:00 +9°C° 0 mm 2 m/s 744 mmHg 86%
23:00 +8°C° 0 mm 2 m/s 744 mmHg 89%

22 Mai, Sâmbătă

Timp Temperatura Precipitaţii Vânt Presiune Umiditate
00:00 +8°C° 0 mm 2 m/s 744 mmHg 91%
01:00 +7°C° 0 mm 2 m/s 744 mmHg 92%
02:00 +7°C° 0 mm 2 m/s 745 mmHg 94%
03:00 +8°C° 0 mm 1 m/s 745 mmHg 92%
04:00 +8°C° 0 mm 1 m/s 745 mmHg 90%
05:00 +9°C° 0 mm 1 m/s 745 mmHg 88%
06:00 +11°C° 0 mm 1 m/s 745 mmHg 79%
07:00 +12°C° 0 mm 0 m/s 745 mmHg 69%
08:00 +14°C° 0 mm 0 m/s 745 mmHg 60%
09:00 +16°C° 0 mm 0 m/s 745 mmHg 54%
10:00 +17°C° 0 mm 0 m/s 745 mmHg 49%
11:00 +18°C° 0 mm 0 m/s 745 mmHg 44%
12:00 +20°C° 0 mm 1 m/s 745 mmHg 42%
13:00 +21°C° 0 mm 1 m/s 744 mmHg 41%
14:00 +21°C° 0 mm 1 m/s 744 mmHg 40%
15:00 +20°C° 0 mm 2 m/s 744 mmHg 45%
16:00 +19°C° 0 mm 2 m/s 744 mmHg 50%
17:00 +19°C° 0 mm 3 m/s 744 mmHg 55%
18:00 +17°C° 0 mm 2 m/s 744 mmHg 67%
19:00 +14°C° 0 mm 2 m/s 744 mmHg 79%
20:00 +12°C° 0 mm 2 m/s 744 mmHg 90%
21:00 +10°C° 0 mm 2 m/s 744 mmHg 92%
22:00 +10°C° 0 mm 1 m/s 744 mmHg 93%
23:00 +10°C° 0 mm 1 m/s 744 mmHg 94%

23 Mai, Duminică

Timp Temperatura Precipitaţii Vânt Presiune Umiditate
00:00 +10°C° 0 mm 1 m/s 744 mmHg 94%
01:00 +9°C° 0 mm 1 m/s 743 mmHg 94%
02:00 +9°C° 0 mm 1 m/s 743 mmHg 93%
03:00 +10°C° 0 mm 1 m/s 743 mmHg 92%
04:00 +9°C° 0 mm 2 m/s 743 mmHg 91%
05:00 +10°C° 0 mm 2 m/s 742 mmHg 90%
06:00 +12°C° 0 mm 2 m/s 742 mmHg 88%
07:00 +13°C° 0 mm 1 m/s 741 mmHg 85%
08:00 +14°C° 0 mm 1 m/s 741 mmHg 83%
09:00 +14°C° 0 mm 1 m/s 741 mmHg 83%
10:00 +14°C° 0 mm 1 m/s 740 mmHg 83%
11:00 +15°C° 0 mm 1 m/s 740 mmHg 83%
12:00 +15°C° 0 mm 1 m/s 739 mmHg 81%
13:00 +16°C° 0 mm 1 m/s 739 mmHg 79%
14:00 +17°C° 0 mm 2 m/s 739 mmHg 77%
15:00 +17°C° 0.1 mm 2 m/s 738 mmHg 78%
16:00 +17°C° 0.1 mm 3 m/s 738 mmHg 78%
17:00 +17°C° 0.1 mm 3 m/s 738 mmHg 79%
18:00 +15°C° 0.1 mm 4 m/s 738 mmHg 81%
19:00 +14°C° 0.1 mm 4 m/s 739 mmHg 84%
20:00 +13°C° 0.1 mm 5 m/s 739 mmHg 86%
21:00 +12°C° 0 mm 5 m/s 740 mmHg 89%
22:00 +11°C° 0 mm 4 m/s 740 mmHg 92%
23:00 +10°C° 0 mm 4 m/s 741 mmHg 96%
Arată mai mult

Formular de consimțământ

Meteoprog și furnizorii noștri de servicii pot stoca și accesa date personale, precum cookies, identificatori de dispozitiv sau alte tehnologii similare pe dispozitivul dumneavoastră și procesa astfel de date pentru a personaliza conținutul și reclamele, dar și pentru a oferi caracteristici de social media și pentru a analiza traficul.

  • Stocarea și/sau accesarea informațiilor pe dispozitivul dumneavoastră

    Cookies, identificatori de dispozitiv sau alte informații pot fi stocate sau accesate pe dispozitiv în scopurile indicate mai sus.

  • Reclame și conținut personalizat, evaluarea reclamelor și a conținutului, informații despre audiențe și dezvoltarea produselor

    Reclamele și conținutul pot fi personalizate pe baza unui profil. Pot fi adăugate date suplimentare pentru a personaliza mai bine reclamele și conținutul. Performanța reclamelor și conținutului poate fi măsurată. Pot fi obținute informații despre utilizatorii care au văzut reclamele și conținutul. Aceste date pot fi utilizate pentru a dezvolta sau îmbunătăți experiența utilizatorilor, sistemele și software-ul.

Dând clic pe ‘Sunt de acord’, permiteți utilizarea cookie-urilor menționate, a identificatorilor de dispozitiv, balizelor web sau altor tehnologii similare. Setările pot fi modificate din browser-ul dispozitivului dumneavoastră.

În anumite scopuri, interesele legitime pot prima asupra consimțământului. Puteți citi mai multe informații în acest sens în Politica privind Confidențialitatea Datelor și Cookie.